User: anonymous   Login
Location: Pasadena, ca
(34.1243°N, 118.1037°W)
Time: 08:25:05
(UTC-07:00)
Language:

LilacSat-2 - Orbit

View from above orbital plane
View from above orbital plane
View from above satellite
View from above satellite

Ground track
Ground track

The orbit data is extracted from the following two-line orbital elements,

1 40908U 15049K   18143.94767492 +.00000362 +00000-0 +23780-4 0  9990
2 40908 097.4683 146.9741 0017650 111.3324 248.9794 15.13496421147704
Epoch (UTC): 23 May 2018 22:44:39
Eccentricity: 0.0017650
inclination: 97.4683°
perigee height: 513 km
apogee height: 538 km
right ascension of ascending node: 146.9741°
argument of perigee: 111.3324°
revolutions per day: 15.13496421
mean anomaly at epoch: 248.9794°
orbit number at epoch: 14770

The dashed part of the orbit path shows where the satellite is in the earth's shadow,  

DLR